This demonstration page uses our WeatherBlox Daily Observations layout. Learn more.

Hourly Observations for February 21, 2021

Temp ( °F °C ) Dew Point ( °F °C ) Humidity (%) Winds ( mph kmh ) Pressure ( in mb ) Visibility ( mi km ) Precip ( " mm )
12:15 am 00:15 Clear 25 -4 14 -10 63 63 NW 10 17 30.52 1033 10 16.0934 0 0
12:35 am 00:35 Clear 25 -4 14 -10 63 63 NW 9 15 30.53 1034 10 16.0934 0 0
12:55 am 00:55 Clear 23 -5 12 -11 63 63 NW 7 11 30.54 1034 10 16.0934 0 0
1:15 am 01:15 Clear 23 -5 12 -11 63 63 NW 7 11 30.54 1034 10 16.0934 0 0
1:35 am 01:35 Clear 23 -5 12 -11 63 63 NW 5 7 30.56 1035 10 16.0934 0 0
1:55 am 01:55 Clear 21 -6 12 -11 68 68 NW 8 13 30.56 1035 10 16.0934 0 0
2:15 am 02:15 Clear 23 -5 12 -11 63 63 NW 6 9 30.56 1035 10 16.0934 0 0
2:35 am 02:35 Clear 23 -5 12 -11 63 63 NW 5 7 30.56 1035 10 16.0934 0 0
2:55 am 02:55 Clear 21 -6 12 -11 68 68 NW 7 11 30.57 1035 10 16.0934 0 0
3:15 am 03:15 Clear 23 -5 12 -11 63 63 NNW 6 9 30.57 1035 10 16.0934 0 0
3:35 am 03:35 Clear 21 -6 12 -11 68 68 W 7 11 30.57 1035 10 16.0934 0 0
3:55 am 03:55 Clear 21 -6 14 -10 74 74 Calm 30.57 1035 10 16.0934 0 0
4:15 am 04:15 Clear 21 -6 12 -11 68 68 E 5 7 30.58 1036 10 16.0934 0 0
4:35 am 04:35 Clear 23 -5 12 -11 63 63 N 3 6 30.58 1036 10 16.0934 0 0
4:55 am 04:55 Clear 21 -6 12 -11 68 68 Calm 30.59 1036 10 16.0934 0 0
5:15 am 05:15 Clear 19 -7 12 -11 73 73 Calm 30.59 1036 10 16.0934 0 0
5:35 am 05:35 Clear 19 -7 12 -11 73 73 W 3 6 30.6 1036 10 16.0934 0 0
5:55 am 05:55 Clear 18 -8 14 -10 86 86 W 3 6 30.62 1037 10 16.0934 0 0
6:15 am 06:15 Clear 19 -7 14 -10 79 79 WSW 6 9 30.62 1037 10 16.0934 0 0
6:35 am 06:35 Clear 18 -8 14 -10 86 86 W 5 7 30.63 1037 10 16.0934 0 0
6:55 am 06:55 Sunny 18 -8 12 -11 79 79 WNW 6 9 30.63 1037 10 16.0934 0 0
7:15 am 07:15 Sunny 18 -8 14 -10 86 86 W 6 9 30.63 1037 10 16.0934 0 0
7:35 am 07:35 Sunny 19 -7 14 -10 79 79 WNW 3 6 30.62 1037 10 16.0934 0 0
7:55 am 07:55 Sunny 21 -6 14 -10 74 74 Calm 30.64 1038 10 16.0934 0 0
8:15 am 08:15 Sunny 23 -5 14 -10 68 68 Calm 30.65 1038 10 16.0934 0 0
8:35 am 08:35 Sunny 27 -3 14 -10 59 59 Calm 30.66 1038 10 16.0934 0 0
8:55 am 08:55 Sunny 27 -3 18 -8 69 69 WNW 6 9 30.67 1039 10 16.0934 0 0
9:15 am 09:15 Sunny 28 -2 18 -8 64 64 WNW 13 20 30.68 1039 10 16.0934 0 0
9:35 am 09:35 Sunny 28 -2 18 -8 64 64 NNW 9 15 30.67 1038 10 16.0934 0 0
9:55 am 09:55 Sunny 30 -1 16 -9 55 55 NNW 9 15 30.66 1038 10 16.0934 0 0
10:15 am 10:15 Sunny 30 -1 16 -9 55 55 NNW 7 11 30.66 1038 10 16.0934 0 0
10:35 am 10:35 Sunny 30 -1 16 -9 55 55 NNW 6 9 30.65 1038 10 16.0934 0 0
10:55 am 10:55 Sunny 30 -1 14 -10 51 51 NE 3 6 30.64 1038 10 16.0934 0 0
11:15 am 11:15 Sunny 32 0 14 -10 47 47 N 3 6 30.63 1037 10 16.0934 0 0
11:35 am 11:35 Sunny 32 0 16 -9 51 51 ENE 3 6 30.63 1037 10 16.0934 0 0
11:55 am 11:55 Sunny 32 0 18 -8 55 55 Calm 30.63 1037 10 16.0934 0 0
12:15 pm 12:15 Sunny 32 0 14 -10 47 47 Calm 30.63 1037 10 16.0934 0.01 0.254
12:35 pm 12:35 Sunny 32 0 12 -11 44 44 Calm 30.62 1037 10 16.0934 0.01 0.254
12:55 pm 12:55 Sunny 34 1 12 -11 41 41 Calm 30.61 1037 10 16.0934 0.03 0.762
1:15 pm 13:15 Sunny 34 1 14 -10 44 44 Calm 30.6 1036 10 16.0934 0.01 0.254
1:35 pm 13:35 Sunny 34 1 14 -10 44 44 Calm 30.59 1036 10 16.0934 0.02 0.508
1:55 pm 13:55 Sunny 34 1 14 -10 44 44 Calm 30.58 1036 10 16.0934 0.04 1.016
2:15 pm 14:15 Sunny 36 2 14 -10 41 41 SSW 6 9 30.58 1036 10 16.0934 0.01 0.254
2:35 pm 14:35 Sunny 36 2 12 -11 38 38 S 5 7 30.57 1035 10 16.0934 0.02 0.508
2:55 pm 14:55 Sunny 36 2 14 -10 41 41 SSW 3 6 30.57 1035 10 16.0934 0.03 0.762
3:15 pm 15:15 Sunny 36 2 14 -10 41 41 W 5 7 30.56 1035 10 16.0934 0 0
3:35 pm 15:35 Sunny 36 2 14 -10 41 41 Calm 30.55 1035 10 16.0934 0.01 0.254
3:55 pm 15:55 Sunny 36 2 14 -10 41 41 S 3 6 30.54 1034 10 16.0934 0.02 0.508
4:15 pm 16:15 Sunny 36 2 14 -10 41 41 S 5 7 30.53 1034 10 16.0934 0 0
4:35 pm 16:35 Sunny 36 2 16 -9 44 44 S 6 9 30.53 1034 10 16.0934 0 0
4:55 pm 16:55 Sunny 36 2 16 -9 44 44 S 7 11 30.52 1033 10 16.0934 0 0
5:15 pm 17:15 Sunny 36 2 14 -10 41 41 SSE 3 6 30.51 1033 10 16.0934 0 0
5:35 pm 17:35 Sunny 36 2 18 -8 48 48 S 7 11 30.51 1033 10 16.0934 0 0
5:55 pm 17:55 Clear 36 2 18 -8 48 48 SSW 5 7 30.51 1033 10 16.0934 0 0
6:15 pm 18:15 Clear 34 1 18 -8 51 51 SSW 5 7 30.52 1034 10 16.0934 0 0
6:35 pm 18:35 Clear 34 1 16 -9 48 48 S 3 6 30.52 1034 10 16.0934 0 0
6:55 pm 18:55 Clear 34 1 18 -8 51 51 S 6 9 30.52 1034 10 16.0934 0 0
7:15 pm 19:15 Clear 34 1 18 -8 51 51 SSE 6 9 30.51 1033 10 16.0934 0 0
7:35 pm 19:35 Clear 34 1 18 -8 51 51 SSE 5 7 30.51 1033 10 16.0934 0 0
7:55 pm 19:55 Clear 34 1 19 -7 56 56 S 5 7 30.5 1033 10 16.0934 0 0
8:15 pm 20:15 Clear 34 1 19 -7 56 56 S 9 15 30.5 1033 10 16.0934 0 0
8:35 pm 20:35 Clear 34 1 19 -7 56 56 S 8 13 30.49 1033 10 16.0934 0 0
8:55 pm 20:55 Clear 34 1 18 -8 51 51 S 9 15 30.49 1033 10 16.0934 0 0
9:15 pm 21:15 Partly Cloudy 32 0 19 -7 60 60 S 8 13 30.49 1033 10 16.0934 0 0
9:35 pm 21:35 Clear 32 0 19 -7 60 60 S 6 9 30.48 1032 10 16.0934 0 0
9:55 pm 21:55 Clear 32 0 19 -7 60 60 S 9 15 30.48 1032 10 16.0934 0 0
10:15 pm 22:15 Clear 32 0 19 -7 60 60 SSE 6 9 30.47 1032 10 16.0934 0 0
10:35 pm 22:35 Partly Cloudy 32 0 19 -7 60 60 S 10 17 30.46 1032 10 16.0934 0 0
10:55 pm 22:55 Cloudy 32 0 21 -6 64 64 S 9 15 30.46 1032 10 16.0934 0 0
11:15 pm 23:15 Mostly Cloudy 32 0 21 -6 64 64 S 9 15 30.44 1031 10 16.0934 0 0
11:35 pm 23:35 Mostly Cloudy 32 0 21 -6 64 64 S 10 17 30.44 1031 10 16.0934 0 0
11:55 pm 23:55 Partly Cloudy 32 0 21 -6 64 64 S 12 19 30.43 1031 10 16.0934 0 0

Powered by AerisWeather